�N����,����,�~����,�C��,���x,�C��,����,���ϕ���,�ő�u�ԕ���,�ő厞����,���˗�,�I�_���x,�n�����x,�ő啗���N��,DTYPE
"23/09/22","00:10",0.0,23.3,94.4,1004.3,316.8,1.6,2.7,295.8,0.00,22.4,25.3,"00:07:28",1
"23/09/22","00:20",0.0,23.3,94.3,1004.3,331.9,1.3,2.5,318.3,0.00,22.4,25.4,"00:10:16",1
"23/09/22","00:30",0.0,23.3,94.3,1004.1,337.4,0.6,1.3,328.2,0.00,22.4,25.2,"00:23:44",1
"23/09/22","00:40",0.0,23.3,94.3,1003.8,318.1,1.2,1.8,326.9,0.00,22.4,25.5,"00:39:04",1
"23/09/22","00:50",0.0,23.2,94.3,1004.3,322.8,1.6,2.5,314.0,0.00,22.3,25.5,"00:44:16",1
"23/09/22","01:00",0.0,23.2,94.3,1003.8,324.2,1.8,3.3,334.0,0.00,22.3,25.1,"00:54:16",1
"23/09/22","01:10",0.0,23.2,94.3,1004.1,318.1,1.6,2.9,337.2,0.00,22.3,25.2,"01:04:00",1
"23/09/22","01:20",0.0,23.2,94.2,1004.1,312.8,1.5,2.6,317.5,0.00,22.3,25.1,"01:11:36",1
"23/09/22","01:30",0.0,23.2,94.1,1004.1,330.0,1.6,2.9,333.7,0.00,22.2,25.3,"01:24:56",1
"23/09/22","01:40",0.0,23.2,94.0,1004.3,327.4,1.2,2.0,343.6,0.00,22.2,25.2,"01:31:04",1
"23/09/22","01:50",0.0,23.2,93.9,1004.3,316.8,1.5,3.3,354.0,0.00,22.2,25.2,"01:47:36",1
"23/09/22","02:00",0.0,23.2,93.8,1004.3,328.5,1.6,3.2,336.3,0.00,22.2,25.2,"01:51:44",1
"23/09/22","02:10",0.0,23.1,93.6,1004.3,325.9,1.8,3.9,346.7,0.00,22.1,25.0,"02:03:28",1
"23/09/22","02:20",0.0,23.2,93.5,1004.5,336.5,1.2,2.1,336.2,0.00,22.1,25.1,"02:12:16",1
"23/09/22","02:30",0.0,23.2,93.5,1004.5,330.3,1.2,2.4,335.0,0.00,22.1,25.0,"02:29:04",1
"23/09/22","02:40",0.0,23.2,93.4,1004.5,333.5,1.3,2.5,331.8,0.00,22.1,25.1,"02:30:48",1
"23/09/22","02:50",0.0,23.1,93.3,1004.1,313.9,1.0,1.8,318.0,0.00,22.0,25.2,"02:48:24",1
"23/09/22","03:00",0.0,23.1,93.3,1004.5,286.9,1.0,2.0,260.9,0.00,22.0,25.2,"02:50:24",1
"23/09/22","03:10",0.0,23.1,93.3,1004.3,313.7,1.2,1.8,308.9,0.00,22.0,25.0,"03:06:00",1
"23/09/22","03:20",0.0,23.1,93.2,1004.1,300.8,1.1,1.9,308.1,0.00,22.0,25.2,"03:12:24",1
"23/09/22","03:30",0.0,23.1,93.2,1004.3,318.2,1.0,1.3,335.9,0.00,22.0,24.9,"03:24:32",1
"23/09/22","03:40",0.0,23.1,93.2,1004.1,322.2,0.6,1.2,340.0,0.00,22.0,25.0,"03:31:52",1
"23/09/22","03:50",0.0,23.2,93.2,1004.5,312.3,0.5,1.2,310.1,0.00,22.1,25.0,"03:49:04",1
"23/09/22","04:00",0.0,23.1,93.2,1004.8,303.0,0.6,1.1,325.4,0.00,22.0,25.2,"03:58:24",1
"23/09/22","04:10",0.0,23.2,93.2,1004.3,329.2,1.2,1.9,338.5,0.00,22.1,25.0,"04:08:40",1
"23/09/22","04:20",0.0,23.0,93.3,1004.3,324.4,1.6,2.9,339.0,0.00,21.9,24.9,"04:17:04",1
"23/09/22","04:30",0.0,23.0,93.3,1004.8,330.4,1.6,2.4,326.6,0.00,21.9,24.9,"04:20:08",1
"23/09/22","04:40",0.0,23.0,93.3,1004.8,323.1,1.6,2.7,328.2,0.00,21.9,24.8,"04:34:32",1
"23/09/22","04:50",0.0,23.0,93.3,1005.0,320.6,1.7,2.7,333.8,0.00,21.9,24.8,"04:47:20",1
"23/09/22","05:00",0.0,23.0,93.4,1004.8,333.7,1.8,3.5,324.8,0.00,21.9,25.0,"04:53:20",1
"23/09/22","05:10",0.0,23.0,93.4,1005.0,329.2,1.6,3.3,322.1,0.00,21.9,24.9,"05:07:44",1
"23/09/22","05:20",0.0,23.0,93.4,1004.8,334.3,1.5,2.5,340.4,0.00,21.9,24.8,"05:18:00",1
"23/09/22","05:30",0.0,22.9,93.4,1004.8,330.4,2.0,3.7,323.3,0.00,21.8,25.0,"05:26:00",1
"23/09/22","05:40",0.0,22.9,93.4,1005.2,330.9,1.5,2.6,337.4,0.00,21.8,24.8,"05:32:32",1
"23/09/22","05:50",0.0,22.9,93.5,1005.2,331.3,1.7,3.3,333.8,0.00,21.8,24.8,"05:40:02",1
"23/09/22","06:00",0.0,22.9,93.5,1005.5,324.8,1.6,2.6,331.5,0.00,21.8,24.7,"05:54:08",1
"23/09/22","06:10",0.0,22.9,93.5,1005.7,329.7,1.7,2.7,347.8,0.00,21.8,24.9,"06:07:12",1
"23/09/22","06:20",0.0,23.0,93.4,1005.7,330.8,1.7,3.2,346.7,0.00,21.9,24.9,"06:12:08",1
"23/09/22","06:30",0.0,23.1,93.3,1005.5,330.7,1.7,2.9,329.4,0.00,22.0,24.9,"06:22:40",1
"23/09/22","06:40",0.0,23.1,93.3,1006.0,330.7,1.6,2.8,332.7,0.00,22.0,24.7,"06:34:56",1
"23/09/22","06:50",0.0,23.2,93.3,1005.7,318.7,1.2,1.8,320.6,0.00,22.1,24.9,"06:47:04",1
"23/09/22","07:00",0.0,23.3,93.2,1006.0,328.5,1.3,2.5,343.6,0.01,22.2,24.8,"06:50:02",1
"23/09/22","07:10",0.0,23.4,93.2,1005.7,323.9,1.5,2.8,340.7,0.02,22.3,24.7,"07:02:24",1
"23/09/22","07:20",0.0,23.4,92.9,1005.7,328.8,1.8,2.7,335.7,0.03,22.2,24.7,"07:17:36",1
"23/09/22","07:30",0.0,23.5,92.7,1006.2,329.0,2.0,3.9,340.7,0.04,22.3,24.6,"07:25:12",1
"23/09/22","07:40",0.0,23.7,92.4,1006.0,331.3,1.8,4.0,341.7,0.07,22.4,24.8,"07:33:20",1
"23/09/22","07:50",0.0,24.1,92.0,1006.0,316.3,1.3,2.6,287.1,0.07,22.8,24.7,"07:44:24",1
"23/09/22","08:00",0.0,24.0,91.4,1005.7,311.4,1.3,3.1,329.1,0.05,22.6,24.7,"07:57:36",1
"23/09/22","08:10",0.0,24.1,90.7,1006.0,306.7,1.3,2.8,335.6,0.03,22.5,25.0,"08:07:52",1
"23/09/22","08:20",0.0,24.2,90.1,1006.4,323.7,1.6,3.2,327.6,0.04,22.5,24.8,"08:16:00",1
"23/09/22","08:30",0.0,24.4,89.4,1006.4,327.2,1.6,3.3,333.2,0.05,22.6,24.8,"08:27:04",1
"23/09/22","08:40",0.0,24.7,89.2,1006.4,319.6,1.5,3.4,338.8,0.09,22.8,24.6,"08:34:32",1
"23/09/22","08:50",0.0,25.0,88.1,1006.4,306.3,1.3,2.6,347.2,0.12,22.9,24.7,"08:40:40",1
"23/09/22","09:00",0.0,25.2,87.1,1006.9,311.1,1.2,2.4,324.6,0.11,22.9,24.7,"08:53:12",1
"23/09/22","09:10",0.0,25.3,86.3,1006.7,296.4,1.0,2.0,338.9,0.08,22.9,24.9,"09:02:40",1
"23/09/22","09:20",0.0,25.6,85.3,1006.7,329.7,0.8,1.8,323.6,0.11,23.0,24.7,"09:11:36",1
"23/09/22","09:30",0.0,25.8,84.3,1006.7,340.1,1.6,4.3,340.6,0.13,23.0,24.9,"09:22:00",1
"23/09/22","09:40",0.0,26.0,82.7,1006.0,348.1,1.7,3.9,337.4,0.15,22.9,24.9,"09:33:12",1
"23/09/22","09:50",0.0,26.2,82.2,1006.7,339.1,1.8,3.9,339.9,0.18,23.0,25.1,"09:44:48",1
"23/09/22","10:00",0.0,26.5,81.0,1006.0,348.3,1.2,3.3,359.8,0.17,23.0,24.8,"09:50:24",1
"23/09/22","10:10",0.0,26.9,79.4,1005.7,355.1,1.3,3.2,347.1,0.25,23.1,24.8,"10:04:24",1
"23/09/22","10:20",0.0,27.3,77.6,1005.2,355.9,1.2,3.1,38.3,0.22,23.1,24.7,"10:15:20",1
"23/09/22","10:30",0.0,27.4,77.6,1005.5,332.6,1.1,3.4,346.6,0.23,23.2,25.0,"10:29:20",1
"23/09/22","10:40",0.0,27.2,77.4,1005.5,339.9,1.0,1.8,343.9,0.18,22.9,25.1,"10:30:48",1
"23/09/22","10:50",0.0,27.5,77.0,1005.5,9.8,1.1,2.2,8.5,0.24,23.1,25.2,"10:45:28",1
"23/09/22","11:00",0.0,28.4,75.1,1005.7,56.8,0.6,1.8,0.8,0.28,23.6,25.1,"10:50:40",1
"23/09/22","11:10",0.0,28.7,74.2,1006.0,77.1,0.3,1.2,350.3,0.23,23.7,25.0,"11:05:28",1
"23/09/22","11:20",0.0,28.5,72.6,1006.2,56.6,0.8,2.7,339.8,0.15,23.1,25.3,"11:18:48",1
"23/09/22","11:30",0.0,27.8,73.9,1006.0,348.4,1.2,2.4,347.6,0.13,22.8,25.3,"11:20:48",1
"23/09/22","11:40",0.0,27.7,74.1,1005.7,41.3,0.7,1.8,3.4,0.14,22.7,25.3,"11:31:12",1
"23/09/22","11:50",0.0,28.2,73.9,1005.5,119.1,0.5,1.3,125.1,0.21,23.1,25.3,"11:47:44",1
"23/09/22","12:00",0.0,29.0,72.4,1005.7,47.0,0.6,1.4,93.5,0.34,23.6,25.3,"11:51:36",1
"23/09/22","12:10",0.0,29.9,69.5,1006.2,188.0,0.6,1.6,2.8,0.44,23.8,25.5,"12:00:32",1
"23/09/22","12:20",0.0,29.9,66.8,1006.7,169.6,0.7,1.6,183.5,0.38,23.1,25.3,"12:16:00",1
"23/09/22","12:30",0.0,28.0,71.9,1006.2,337.3,1.7,3.6,344.7,0.13,22.5,25.6,"12:26:16",1
"23/09/22","12:40",0.0,27.1,77.5,1005.0,346.7,1.7,3.1,338.3,0.11,22.9,25.5,"12:31:36",1
"23/09/22","12:50",0.0,26.2,80.9,1003.8,336.3,2.0,4.2,326.5,0.11,22.7,25.6,"12:41:28",1
"23/09/22","13:00",0.0,26.2,82.8,1003.6,334.7,1.6,3.3,349.9,0.13,23.1,25.3,"12:52:40",1
"23/09/22","13:10",0.0,26.5,83.4,1004.1,338.3,1.6,2.9,352.5,0.18,23.5,25.5,"13:08:00",1
"23/09/22","13:20",0.0,26.8,82.5,1003.4,330.2,1.7,3.2,347.0,0.23,23.6,25.7,"13:10:16",1
"23/09/22","13:30",0.0,26.9,81.7,1003.8,300.7,1.1,3.4,346.2,0.13,23.5,25.7,"13:23:44",1
"23/09/22","13:40",0.0,26.8,80.5,1003.6,320.8,1.2,3.1,324.5,0.15,23.2,25.6,"13:34:08",1
"23/09/22","13:50",0.0,27.1,80.4,1003.8,335.8,1.5,3.7,340.4,0.15,23.5,25.7,"13:40:40",1
"23/09/22","14:00",0.0,27.0,80.5,1003.8,320.4,1.5,3.4,350.6,0.12,23.4,25.6,"13:54:08",1
"23/09/22","14:10",0.0,26.8,79.9,1003.4,333.6,1.7,3.2,327.4,0.17,23.1,25.5,"14:09:20",1
"23/09/22","14:20",0.0,26.7,78.3,1003.4,347.2,2.1,4.8,349.0,0.13,22.6,25.6,"14:10:08",1
"23/09/22","14:30",0.0,27.5,77.7,1003.6,328.9,1.2,2.7,341.9,0.18,23.3,25.7,"14:21:04",1
"23/09/22","14:40",0.0,28.0,76.0,1003.4,339.8,1.6,3.7,340.5,0.21,23.4,25.9,"14:31:52",1
"23/09/22","14:50",0.0,28.0,74.4,1004.1,334.6,1.7,4.0,341.7,0.21,23.1,25.7,"14:44:56",1
"23/09/22","15:00",0.0,27.7,73.8,1003.8,333.0,1.5,3.6,0.1,0.12,22.6,25.7,"14:59:52",1
"23/09/22","15:10",0.0,27.5,74.8,1004.3,308.0,1.3,2.9,264.7,0.11,22.7,25.7,"15:08:00",1
"23/09/22","15:20",0.0,27.4,75.7,1003.8,341.3,1.6,3.4,348.4,0.09,22.8,25.8,"15:14:40",1
"23/09/22","15:30",0.0,27.3,76.1,1003.4,341.1,1.8,3.7,310.0,0.09,22.8,25.8,"15:27:44",1
"23/09/22","15:40",0.0,27.1,75.8,1003.6,335.2,2.2,4.9,348.5,0.08,22.5,25.9,"15:35:12",1
"23/09/22","15:50",0.0,26.8,75.1,1004.1,329.4,2.6,4.0,316.6,0.05,22.1,25.9,"15:48:16",1
"23/09/22","16:00",0.0,27.0,74.8,1004.5,343.4,2.2,5.9,340.9,0.08,22.2,25.8,"15:58:16",1
"23/09/22","16:10",0.0,27.1,73.8,1004.3,337.6,2.2,5.0,302.3,0.11,22.1,26.0,"16:04:56",1
"23/09/22","16:20",0.0,26.7,73.5,1004.8,344.7,3.0,6.4,352.8,0.06,21.6,25.7,"16:17:52",1
"23/09/22","16:30",0.0,26.5,74.4,1004.5,345.6,2.8,5.6,323.0,0.06,21.6,25.8,"16:22:32",1
"23/09/22","16:40",0.0,26.4,75.2,1004.5,340.7,2.6,7.4,336.2,0.07,21.7,25.9,"16:39:20",1
"23/09/22","16:50",0.0,26.1,75.9,1004.8,343.0,2.6,5.0,336.9,0.03,21.6,25.8,"16:43:52",1
"23/09/22","17:00",0.0,25.9,76.7,1005.0,342.5,3.1,7.2,341.9,0.03,21.5,25.8,"16:56:48",1
"23/09/22","17:10",0.0,25.7,77.5,1005.0,344.7,2.3,4.2,334.7,0.02,21.5,25.8,"17:00:24",1
"23/09/22","17:20",0.0,25.4,78.0,1005.0,338.0,2.6,5.7,337.4,0.01,21.3,25.7,"17:17:04",1
"23/09/22","17:30",0.0,25.1,78.7,1005.5,341.9,2.7,6.7,333.5,0.00,21.2,25.8,"17:23:20",1
"23/09/22","17:40",0.0,24.9,79.2,1005.7,337.4,2.3,4.8,354.1,0.00,21.1,25.7,"17:31:04",1
"23/09/22","17:50",0.0,24.8,79.6,1006.2,338.2,2.0,4.3,318.6,0.00,21.1,25.5,"17:40:56",1
"23/09/22","18:00",0.0,24.7,79.7,1006.0,331.2,1.3,3.2,308.9,0.00,21.0,25.7,"17:52:40",1
"23/09/22","18:10",0.0,24.6,80.0,1006.2,332.8,1.2,2.8,341.2,0.00,21.0,25.5,"18:09:28",1
"23/09/22","18:20",0.0,24.4,80.4,1005.7,355.2,1.7,3.5,341.9,0.00,20.8,25.7,"18:13:04",1
"23/09/22","18:30",0.0,24.3,80.8,1006.4,333.3,2.1,4.2,328.5,0.00,20.8,25.6,"18:26:24",1
"23/09/22","18:40",0.0,24.4,80.6,1006.2,336.0,2.5,4.7,336.5,0.00,20.9,25.5,"18:32:40",1
"23/09/22","18:50",0.0,24.4,80.6,1006.4,332.5,2.1,3.6,345.6,0.00,20.9,25.6,"18:44:32",1
"23/09/22","19:00",0.0,24.3,81.4,1006.7,313.6,1.2,1.9,341.7,0.00,21.0,25.4,"18:50:32",1
"23/09/22","19:10",0.0,24.2,82.2,1006.7,307.2,1.0,1.6,344.5,0.00,21.0,25.4,"19:09:36",1
"23/09/22","19:20",0.0,23.9,82.8,1007.1,312.9,0.7,1.8,342.6,0.00,20.8,25.3,"19:16:08",1
"23/09/22","19:30",0.0,23.8,83.3,1007.4,278.7,0.7,1.7,238.8,0.00,20.8,25.5,"19:28:48",1
"23/09/22","19:40",0.0,23.9,83.8,1007.6,260.0,1.1,2.4,236.5,0.00,21.0,25.3,"19:30:24",1
"23/09/22","19:50",0.2,23.6,84.6,1007.8,328.1,1.3,2.5,332.5,0.00,20.9,25.2,"19:47:52",1
"23/09/22","20:00",0.0,23.3,85.7,1007.8,290.0,0.8,2.4,334.9,0.00,20.8,25.2,"19:50:32",1
"23/09/22","20:10",0.0,23.1,86.6,1008.1,264.2,0.7,1.3,245.2,0.00,20.8,25.1,"20:00:32",1
"23/09/22","20:20",0.0,23.0,87.5,1007.8,269.6,1.0,1.9,322.5,0.00,20.9,25.1,"20:12:56",1
"23/09/22","20:30",0.0,22.8,88.3,1008.1,295.7,0.8,1.8,346.3,0.00,20.8,25.3,"20:29:04",1
"23/09/22","20:40",0.0,22.6,88.8,1007.8,307.4,0.7,1.3,340.7,0.00,20.7,25.3,"20:30:08",1
"23/09/22","20:50",0.0,22.6,89.2,1007.8,258.8,0.5,1.4,233.9,0.00,20.8,25.2,"20:45:28",1
"23/09/22","21:00",0.0,22.6,89.6,1008.1,317.7,1.3,2.8,322.7,0.00,20.8,25.1,"20:56:56",1
"23/09/22","21:10",0.0,22.6,89.8,1008.3,316.6,1.5,2.6,336.6,0.00,20.9,25.2,"21:03:28",1
"23/09/22","21:20",0.0,22.5,89.9,1008.3,309.9,1.6,3.2,340.8,0.00,20.8,25.2,"21:12:00",1
"23/09/22","21:30",0.0,22.6,90.0,1008.3,319.9,1.3,2.6,337.6,0.00,20.9,25.2,"21:23:12",1
"23/09/22","21:40",0.0,22.6,90.0,1008.6,288.7,1.0,1.8,314.0,0.00,20.9,25.0,"21:35:20",1
"23/09/22","21:50",0.0,22.6,90.1,1008.3,291.1,1.0,1.6,314.0,0.00,20.9,25.0,"21:41:28",1
"23/09/22","22:00",0.0,22.5,89.9,1008.1,312.1,1.3,2.6,346.0,0.00,20.8,25.0,"21:54:24",1
"23/09/22","22:10",0.0,22.5,89.7,1007.8,300.4,1.1,2.0,290.3,0.00,20.8,25.0,"22:08:40",1
"23/09/22","22:20",0.0,22.6,89.3,1008.1,300.7,1.0,2.4,337.9,0.00,20.8,25.0,"22:14:00",1
"23/09/22","22:30",0.0,22.7,89.1,1008.3,270.0,0.3,0.9,233.4,0.00,20.9,25.0,"22:22:32",1
"23/09/22","22:40",0.0,22.7,88.8,1008.1,277.5,0.8,1.2,300.1,0.00,20.8,25.0,"22:39:20",1
"23/09/22","22:50",0.0,22.7,88.5,1008.3,294.6,1.1,2.1,314.6,0.00,20.7,24.9,"22:47:52",1
"23/09/22","23:00",0.0,22.7,88.3,1008.3,314.6,1.5,2.8,328.1,0.00,20.7,24.6,"22:59:12",1
"23/09/22","23:10",0.0,22.6,88.3,1008.6,310.0,1.5,3.1,330.9,0.00,20.6,24.9,"23:03:20",1
"23/09/22","23:20",0.0,22.6,88.3,1008.3,299.4,1.2,2.6,310.1,0.00,20.6,25.0,"23:10:48",1
"23/09/22","23:30",0.0,22.5,88.3,1008.3,303.3,1.0,2.0,333.4,0.00,20.5,24.8,"23:20:24",1
"23/09/22","23:40",0.0,22.6,88.3,1008.1,312.9,0.6,1.2,330.2,0.00,20.6,24.8,"23:32:00",1
"23/09/22","23:50",0.0,22.6,88.4,1008.1,271.9,0.8,1.7,314.7,0.00,20.6,24.7,"23:41:12",1
"23/09/22","24:00",0.0,22.5,88.3,1008.1,270.9,0.8,1.6,272.1,0.00,20.5,24.9,"23:52:48",1
